Location: Newark
(55.5030°N, 22.7200°E)
Time: 05:56:13
(UTC+00:00)

deb Explorer IX - All Passes

Search period start: 28 May 2020 00:00
Search period end: 07 June 2020 00:00
Orbit: 546 x 1101 km, 38.8° (Epoch: 27 May)

Date Brightness Start Highest point End Pass type
(mag) Time Alt. Az. Time Alt. Az. Time Alt. Az.
28 May - 20:20:25 10° SSW 20:22:51 13° S 20:25:26 10° SSE visible
28 May - 22:08:00 10° SSW 22:08:28 10° SSW 22:08:56 10° SSW visible
29 May - 19:58:06 10° SSW 20:00:14 12° S 20:02:28 10° SSE visible
30 May - 19:35:50 10° SSW 19:37:37 12° S 19:39:29 10° SSE daylight
31 May - 19:13:36 10° SSW 19:15:00 11° S 19:16:26 10° SSE daylight
01 Jun - 18:51:31 10° S 18:52:24 10° S 18:53:17 10° S daylight
